Radiation Dose measured at exhaust stack monitor of Fukushima Daiichi Nuclear Power Station
Date,Time,Unit 5 6 shared exhaust cylinders,Wind Direction,Wind Velocity(m/s)
2021/04/07,00:00,3.9,northwest,5.8
2021/04/07,00:10,4.0,northwest,6.0
2021/04/07,00:20,3.9,northwest,5.7
2021/04/07,00:30,3.9,northwest,5.7
2021/04/07,00:40,3.9,northwest,6.4
2021/04/07,00:50,3.8,northwest,6.8
2021/04/07,01:00,3.8,northwest,6.9
2021/04/07,01:10,3.8,northwest,6.6
2021/04/07,01:20,4.1,northwest,6.4
2021/04/07,01:30,3.9,northwest,6.4
2021/04/07,01:40,3.8,northwest,5.5
2021/04/07,01:50,4.0,northwest,5.3
2021/04/07,02:00,3.9,northwest,6.1
2021/04/07,02:10,4.0,northwest,5.4
2021/04/07,02:20,3.8,northwest,6.3
2021/04/07,02:30,3.8,northwest,5.7
2021/04/07,02:40,4.0,northwest,5.7
2021/04/07,02:50,3.8,northwest,6.3
2021/04/07,03:00,3.9,northwest,5.9
2021/04/07,03:10,4.0,north-northwest,6.4
2021/04/07,03:20,3.9,north-northwest,7.1
2021/04/07,03:30,3.9,north-northwest,7.8
2021/04/07,03:40,3.9,north-northwest,7.4
2021/04/07,03:50,3.9,north-northwest,8.5
2021/04/07,04:00,4.0,north-northwest,7.3
2021/04/07,04:10,3.9,north-northwest,7.3
2021/04/07,04:20,3.7,north-northwest,7.4
2021/04/07,04:30,3.8,north-northwest,6.8
2021/04/07,04:40,3.8,north-northwest,6.8
2021/04/07,04:50,3.9,north-northwest,7.5
2021/04/07,05:00,4.0,north-northwest,8.0
2021/04/07,05:10,3.9,north-northwest,6.3
2021/04/07,05:20,3.9,north-northwest,6.8
2021/04/07,05:30,3.9,north-northwest,7.5
2021/04/07,05:40,3.8,northwest,7.2
2021/04/07,05:50,4.0,north-northwest,6.9
2021/04/07,06:00,3.9,north-northwest,6.7
2021/04/07,06:10,3.9,north-northwest,6.4
2021/04/07,06:20,3.9,northwest,6.9
2021/04/07,06:30,4.0,north-northwest,6.6
2021/04/07,06:40,4.2,north-northwest,6.1
2021/04/07,06:50,3.8,north-northwest,5.8
2021/04/07,07:00,4.0,north-northwest,4.4
2021/04/07,07:10,4.0,north-northwest,5.6
2021/04/07,07:20,4.0,north,5.0
2021/04/07,07:30,3.8,north,5.7
2021/04/07,07:40,3.9,north,5.6
2021/04/07,07:50,3.9,north,4.9
2021/04/07,08:00,3.9,north,4.9
2021/04/07,08:10,3.8,north,5.6
2021/04/07,08:20,4.0,north,5.4
2021/04/07,08:30,3.9,north-northeast,5.4
2021/04/07,08:40,3.9,north-northeast,5.6
2021/04/07,08:50,3.9,north,5.1
2021/04/07,09:00,4.1,north-northeast,6.0
2021/04/07,09:10,3.8,north-northeast,6.9
2021/04/07,09:20,4.0,north-northeast,6.4
2021/04/07,09:30,3.9,north-northeast,7.3
2021/04/07,09:40,3.8,north-northeast,7.0
2021/04/07,09:50,4.0,north-northeast,6.9
2021/04/07,10:00,3.9,north-northeast,7.0
2021/04/07,10:10,4.0,north-northeast,6.5
2021/04/07,10:20,4.0,north-northeast,5.8
2021/04/07,10:30,3.9,northeast,5.6
2021/04/07,10:40,3.8,north-northeast,5.9
2021/04/07,10:50,3.9,north-northeast,6.0
2021/04/07,11:00,3.9,north-northeast,5.9
2021/04/07,11:10,3.8,north-northeast,5.5
2021/04/07,11:20,3.8,north-northeast,5.2
2021/04/07,11:30,3.9,north-northeast,4.8
2021/04/07,11:40,4.1,north-northeast,4.6
2021/04/07,11:50,3.9,north-northeast,4.2
2021/04/07,12:00,3.9,north-northeast,4.7
2021/04/07,12:10,3.9,north-northeast,3.5
2021/04/07,12:20,4.0,northeast,3.5
2021/04/07,12:30,3.9,north-northeast,3.6
2021/04/07,12:40,3.9,north-northeast,4.0
2021/04/07,12:50,4.0,north,4.2
2021/04/07,13:00,4.0,northeast,2.3
2021/04/07,13:10,3.8,east-northeast,2.9
2021/04/07,13:20,4.0,north-northeast,2.8
2021/04/07,13:30,3.8,northeast,3.4
2021/04/07,13:40,4.1,northeast,2.9
2021/04/07,13:50,3.9,northeast,2.9
2021/04/07,14:00,4.0,northeast,3.1
2021/04/07,14:10,3.9,northeast,2.5
2021/04/07,14:20,4.0,east-northeast,2.0
2021/04/07,14:30,3.9,east-northeast,2.6
2021/04/07,14:40,3.9,northeast,2.3
2021/04/07,14:50,3.9,east-northeast,2.8
2021/04/07,15:00,3.9,north-northeast,2.8
2021/04/07,15:10,4.0,east,2.5
2021/04/07,15:20,3.8,northeast,2.6
2021/04/07,15:30,4.0,east-northeast,1.7
2021/04/07,15:40,3.9,east,1.5
2021/04/07,15:50,4.0,east-northeast,2.0
2021/04/07,16:00,3.9,east-northeast,2.6
2021/04/07,16:10,4.2,east,1.7
2021/04/07,16:20,4.0,east,1.7
2021/04/07,16:30,4.0,east-southeast,1.5
2021/04/07,16:40,4.0,southeast,2.0
2021/04/07,16:50,3.9,east-southeast,2.6
2021/04/07,17:00,4.0,south,1.7
2021/04/07,17:10,4.0,south-southwest,0.8
2021/04/07,17:20,3.9,east-southeast,1.2
2021/04/07,17:30,3.9,south-southeast,1.1
2021/04/07,17:40,4.0,south-southeast,0.6
2021/04/07,17:50,4.0,-,CALM
2021/04/07,18:00,3.9,-,CALM
2021/04/07,18:10,3.9,north-northwest,0.9
2021/04/07,18:20,3.9,-,CALM
2021/04/07,18:30,4.0,north-northwest,1.2
2021/04/07,18:40,3.9,north-northwest,2.6
2021/04/07,18:50,3.8,north-northwest,2.3
2021/04/07,19:00,4.0,north-northwest,1.7
2021/04/07,19:10,4.0,north,1.5
2021/04/07,19:20,3.9,north-northeast,2.0
2021/04/07,19:30,3.9,north-northeast,1.2
2021/04/07,19:40,4.0,north-northwest,1.7
2021/04/07,19:50,3.9,west,1.7
2021/04/07,20:00,4.0,west,2.3
2021/04/07,20:10,4.2,west,4.8
2021/04/07,20:20,3.9,west-northwest,5.5
2021/04/07,20:30,4.0,west-northwest,5.0
2021/04/07,20:40,4.0,northwest,4.5
2021/04/07,20:50,4.0,north-northwest,4.9
2021/04/07,21:00,3.9,north-northwest,5.0
2021/04/07,21:10,4.0,north-northwest,5.0
2021/04/07,21:20,4.0,north-northwest,5.9
2021/04/07,21:30,3.9,northwest,5.8
2021/04/07,21:40,3.9,northwest,5.4
2021/04/07,21:50,3.9,northwest,3.7
2021/04/07,22:00,3.9,northwest,2.8
2021/04/07,22:10,3.9,west,1.5
2021/04/07,22:20,4.0,northwest,1.5
2021/04/07,22:30,3.9,northwest,1.2
2021/04/07,22:40,4.0,north-northwest,1.5
2021/04/07,22:50,4.0,east-southeast,0.8
2021/04/07,23:00,4.0,northeast,0.9
2021/04/07,23:10,4.0,northeast,0.8
2021/04/07,23:20,4.0,north-northeast,1.5
2021/04/07,23:30,3.8,north,2.6
2021/04/07,23:40,4.0,northwest,4.0
2021/04/07,23:50,3.9,northwest,4.1
